User: anonymous
Location: Unspecified
(0.0000°N, 0.0000°E)
Time: 22:18:51
(UTC+00:00)
Language:

PLEIADES HR1 - Orbit

View from above orbital plane
View from above orbital plane
View from above satellite
View from above satellite

Ground track
Ground track

The orbit data is extracted from the following two-line orbital elements,

1 38012U 11076F   14110.46450556  .00000706  00000-0  16175-3 0  6152
2 38012 098.1985 186.1664 0001341 087.5715 272.5642 14.58528049124685
Epoch (UTC): 20 April 2014 11:08:53
Eccentricity: 0.0001341
inclination: 98.1985°
perigee height: 697 km
apogee height: 699 km
right ascension of ascending node: 186.1664°
argument of perigee: 87.5715°
revolutions per day: 14.58528049
mean anomaly at epoch: 272.5642°
orbit number at epoch: 12468

The dashed part of the orbit path shows where the satellite is in the earth's shadow,  

DLR